Time,TemperatureF,DewpointF,PressureIn,WindDirection,WindDirectionDegrees,WindSpeedMPH,WindSpeedGustMPH,Humidity,HourlyPrecipIn,Conditions,Clouds,dailyrainin,SoftwareType,DateUTC
2013-03-04 00:01:00,33.0,26.0,29.57,WNW,291,3.0,10.0,74,-99.99,,,-99.99,,2013-03-04 05:01:00,
2013-03-04 00:11:00,33.0,26.0,29.57,WNW,291,3.0,10.0,74,-99.99,,,-99.99,,2013-03-04 05:11:00,
2013-03-04 00:22:00,33.0,26.0,29.57,West,269,4.0,8.0,75,-99.99,,,-99.99,,2013-03-04 05:22:00,
2013-03-04 00:32:00,33.0,26.0,29.57,WNW,290,4.0,11.0,75,-99.99,,,-99.99,,2013-03-04 05:32:00,
2013-03-04 00:42:00,33.0,26.0,29.58,WNW,283,5.0,12.0,75,-99.99,,,-99.99,,2013-03-04 05:42:00,
2013-03-04 00:52:00,33.0,26.0,29.58,WNW,283,5.0,12.0,75,-99.99,,,-99.99,,2013-03-04 05:52:00,
2013-03-04 01:02:00,33.0,26.0,29.57,WNW,296,3.0,10.0,75,-99.99,,,-99.99,,2013-03-04 06:02:00,
2013-03-04 01:11:00,33.0,26.0,29.57,WNW,296,3.0,10.0,75,-99.99,,,-99.99,,2013-03-04 06:11:00,
2013-03-04 01:22:00,33.0,26.0,29.57,WNW,286,3.0,13.0,75,-99.99,,,-99.99,,2013-03-04 06:22:00,
2013-03-04 01:32:00,33.0,26.0,29.57,WNW,285,6.0,10.0,75,-99.99,,,-99.99,,2013-03-04 06:32:00,
2013-03-04 01:42:00,33.0,26.0,29.57,WNW,285,6.0,10.0,75,-99.99,,,-99.99,,2013-03-04 06:42:00,
2013-03-04 01:52:00,33.0,26.0,29.57,NNW,328,3.0,16.0,75,-99.99,,,-99.99,,2013-03-04 06:52:00,
2013-03-04 02:01:00,33.0,26.0,29.58,WNW,285,1.0,9.0,75,-99.99,,,-99.99,,2013-03-04 07:01:00,
2013-03-04 02:11:00,33.0,26.0,29.58,WNW,285,1.0,9.0,75,-99.99,,,-99.99,,2013-03-04 07:11:00,
2013-03-04 02:22:00,33.0,26.0,29.57,West,275,4.0,11.0,74,-99.99,,,-99.99,,2013-03-04 07:22:00,
2013-03-04 02:32:00,33.0,26.0,29.57,WNW,283,6.0,13.0,74,-99.99,,,-99.99,,2013-03-04 07:32:00,
2013-03-04 02:42:00,33.0,26.0,29.57,WNW,283,6.0,13.0,74,-99.99,,,-99.99,,2013-03-04 07:42:00,
2013-03-04 02:52:00,33.0,26.0,29.57,WNW,292,4.0,9.0,74,-99.99,,,-99.99,,2013-03-04 07:52:00,
2013-03-04 03:02:00,33.0,25.0,29.57,NW,310,3.0,11.0,73,-99.99,,,-99.99,,2013-03-04 08:02:00,
2013-03-04 03:11:00,32.0,24.0,29.57,West,277,5.0,9.0,73,-99.99,,,-99.99,,2013-03-04 08:11:00,
2013-03-04 03:22:00,32.0,24.0,29.57,West,277,5.0,9.0,73,-99.99,,,-99.99,,2013-03-04 08:22:00,
2013-03-04 03:32:00,32.0,24.0,29.57,WNW,286,8.0,14.0,73,-99.99,,,-99.99,,2013-03-04 08:32:00,
2013-03-04 03:42:00,32.0,24.0,29.57,WNW,286,8.0,14.0,73,-99.99,,,-99.99,,2013-03-04 08:42:00,
2013-03-04 03:52:00,32.0,24.0,29.57,WNW,283,4.0,9.0,73,-99.99,,,-99.99,,2013-03-04 08:52:00,
2013-03-04 04:02:00,32.0,24.0,29.57,West,279,4.0,7.0,73,-99.99,,,-99.99,,2013-03-04 09:02:00,
2013-03-04 04:11:00,32.0,24.0,29.57,West,279,4.0,7.0,73,-99.99,,,-99.99,,2013-03-04 09:11:00,
2013-03-04 04:22:00,32.0,24.0,29.58,WNW,285,5.0,17.0,72,-99.99,,,-99.99,,2013-03-04 09:22:00,
2013-03-04 04:32:00,31.0,23.0,29.58,WNW,284,8.0,12.0,72,-99.99,,,-99.99,,2013-03-04 09:32:00,
2013-03-04 04:42:00,31.0,23.0,29.58,WNW,284,8.0,12.0,72,-99.99,,,-99.99,,2013-03-04 09:42:00,
2013-03-04 04:52:00,31.0,23.0,29.58,WNW,295,7.0,11.0,73,-99.99,,,-99.99,,2013-03-04 09:52:00,
2013-03-04 05:01:00,31.0,23.0,29.58,West,277,7.0,10.0,73,-99.99,,,-99.99,,2013-03-04 10:01:00,
2013-03-04 05:11:00,31.0,23.0,29.58,West,277,7.0,10.0,73,-99.99,,,-99.99,,2013-03-04 10:11:00,
2013-03-04 05:22:00,31.0,23.0,29.58,WNW,299,2.0,7.0,73,-99.99,,,-99.99,,2013-03-04 10:22:00,
2013-03-04 05:32:00,31.0,23.0,29.58,NW,319,3.0,8.0,73,-99.99,,,-99.99,,2013-03-04 10:32:00,
2013-03-04 05:42:00,30.0,22.0,29.58,WNW,299,2.0,16.0,73,-99.99,,,-99.99,,2013-03-04 10:42:00,
2013-03-04 05:52:00,30.0,22.0,29.58,WNW,299,2.0,16.0,73,-99.99,,,-99.99,,2013-03-04 10:52:00,
2013-03-04 06:02:00,30.0,22.0,29.58,NW,324,3.0,11.0,72,-99.99,,,-99.99,,2013-03-04 11:02:00,
2013-03-04 06:11:00,30.0,22.0,29.58,NW,324,3.0,11.0,72,-99.99,,,-99.99,,2013-03-04 11:11:00,
2013-03-04 06:22:00,30.0,22.0,29.59,West,277,3.0,12.0,73,-99.99,,,-99.99,,2013-03-04 11:22:00,
2013-03-04 06:32:00,30.0,22.0,29.59,NW,309,6.0,13.0,73,-99.99,,,-99.99,,2013-03-04 11:32:00,
2013-03-04 06:42:00,30.0,22.0,29.59,NW,309,6.0,13.0,73,-99.99,,,-99.99,,2013-03-04 11:42:00,
2013-03-04 06:52:00,30.0,22.0,29.59,WNW,288,6.0,11.0,73,-99.99,,,-99.99,,2013-03-04 11:52:00,
2013-03-04 07:01:00,30.0,22.0,29.59,West,272,3.0,12.0,72,-99.99,,,-99.99,,2013-03-04 12:01:00,
2013-03-04 07:11:00,30.0,22.0,29.60,WNW,284,5.0,15.0,72,-99.99,,,-99.99,,2013-03-04 12:11:00,
2013-03-04 07:22:00,30.0,22.0,29.60,WNW,284,5.0,15.0,72,-99.99,,,-99.99,,2013-03-04 12:22:00,
2013-03-04 07:32:00,30.0,22.0,29.60,NW,315,6.0,16.0,72,-99.99,,,-99.99,,2013-03-04 12:32:00,
2013-03-04 07:42:00,30.0,22.0,29.60,NW,315,6.0,16.0,72,-99.99,,,-99.99,,2013-03-04 12:42:00,
2013-03-04 07:53:00,31.0,23.0,29.60,WNW,291,9.0,14.0,71,-99.99,,,-99.99,,2013-03-04 12:53:00,
2013-03-04 08:02:00,31.0,23.0,29.60,WNW,290,8.0,16.0,71,-99.99,,,-99.99,,2013-03-04 13:02:00,
2013-03-04 08:11:00,31.0,23.0,29.60,WNW,290,8.0,16.0,71,-99.99,,,-99.99,,2013-03-04 13:11:00,
2013-03-04 08:21:00,31.0,23.0,29.60,NW,319,6.0,12.0,71,-99.99,,,-99.99,,2013-03-04 13:21:00,
2013-03-04 08:32:00,31.0,22.0,29.59,WNW,298,7.0,13.0,70,-99.99,,,-99.99,,2013-03-04 13:32:00,
2013-03-04 08:42:00,31.0,22.0,29.59,WNW,298,7.0,13.0,70,-99.99,,,-99.99,,2013-03-04 13:42:00,
2013-03-04 08:52:00,32.0,23.0,29.59,West,263,12.0,18.0,69,-99.99,,,-99.99,,2013-03-04 13:52:00,
2013-03-04 09:01:00,33.0,24.0,29.58,West,279,7.0,12.0,69,-99.99,,,-99.99,,2013-03-04 14:01:00,
2013-03-04 09:11:00,33.0,24.0,29.58,West,279,7.0,12.0,69,-99.99,,,-99.99,,2013-03-04 14:11:00,
2013-03-04 09:22:00,34.0,24.0,29.58,WNW,288,7.0,13.0,67,-99.99,,,-99.99,,2013-03-04 14:22:00,
2013-03-04 09:32:00,34.0,23.0,29.58,WNW,301,9.0,15.0,65,-99.99,,,-99.99,,2013-03-04 14:32:00,
2013-03-04 09:42:00,34.0,23.0,29.58,WNW,301,9.0,15.0,65,-99.99,,,-99.99,,2013-03-04 14:42:00,
2013-03-04 09:52:00,34.0,23.0,29.59,West,268,9.0,15.0,65,-99.99,,,-99.99,,2013-03-04 14:52:00,
2013-03-04 10:01:00,34.0,24.0,29.59,WNW,285,9.0,15.0,66,-99.99,,,-99.99,,2013-03-04 15:01:00,
2013-03-04 10:11:00,34.0,24.0,29.59,WNW,285,9.0,15.0,66,-99.99,,,-99.99,,2013-03-04 15:11:00,
2013-03-04 10:22:00,35.0,24.0,29.58,WNW,287,3.0,17.0,64,-99.99,,,-99.99,,2013-03-04 15:22:00,
2013-03-04 10:32:00,35.0,24.0,29.58,WNW,290,12.0,17.0,63,-99.99,,,-99.99,,2013-03-04 15:32:00,
2013-03-04 10:42:00,35.0,24.0,29.58,WNW,290,12.0,17.0,63,-99.99,,,-99.99,,2013-03-04 15:42:00,
2013-03-04 10:52:00,35.0,24.0,29.58,West,273,3.0,11.0,64,-99.99,,,-99.99,,2013-03-04 15:52:00,
2013-03-04 11:02:00,35.0,24.0,29.58,WNW,290,9.0,17.0,63,-99.99,,,-99.99,,2013-03-04 16:02:00,
2013-03-04 11:11:00,35.0,24.0,29.58,WNW,290,9.0,17.0,63,-99.99,,,-99.99,,2013-03-04 16:11:00,
2013-03-04 11:21:00,35.0,24.0,29.58,North,350,4.0,19.0,64,-99.99,,,-99.99,,2013-03-04 16:21:00,
2013-03-04 11:32:00,35.0,24.0,29.58,WNW,286,8.0,16.0,64,-99.99,,,-99.99,,2013-03-04 16:32:00,
2013-03-04 11:42:00,35.0,24.0,29.58,WNW,286,8.0,16.0,64,-99.99,,,-99.99,,2013-03-04 16:42:00,
2013-03-04 11:52:00,37.0,26.0,29.58,West,271,6.0,15.0,63,-99.99,,,-99.99,,2013-03-04 16:52:00,
2013-03-04 12:02:00,37.0,26.0,29.58,WNW,284,8.0,18.0,65,-99.99,,,-99.99,,2013-03-04 17:02:00,
2013-03-04 12:11:00,37.0,26.0,29.58,WNW,284,8.0,18.0,65,-99.99,,,-99.99,,2013-03-04 17:11:00,
2013-03-04 12:22:00,37.0,26.0,29.57,West,272,6.0,15.0,63,-99.99,,,-99.99,,2013-03-04 17:22:00,
2013-03-04 12:32:00,38.0,26.0,29.57,West,265,10.0,17.0,62,-99.99,,,-99.99,,2013-03-04 17:32:00,
2013-03-04 12:42:00,38.0,26.0,29.57,West,265,10.0,17.0,62,-99.99,,,-99.99,,2013-03-04 17:42:00,
2013-03-04 12:52:00,37.0,26.0,29.56,WNW,303,3.0,19.0,64,-99.99,,,-99.99,,2013-03-04 17:52:00,
2013-03-04 13:01:00,38.0,27.0,29.56,WNW,290,5.0,12.0,64,-99.99,,,-99.99,,2013-03-04 18:01:00,
2013-03-04 13:11:00,38.0,27.0,29.56,WNW,290,5.0,12.0,64,-99.99,,,-99.99,,2013-03-04 18:11:00,
2013-03-04 13:22:00,37.0,26.0,29.56,West,279,8.0,17.0,65,-99.99,,,-99.99,,2013-03-04 18:22:00,
2013-03-04 13:32:00,37.0,27.0,29.56,WNW,298,14.0,20.0,66,-99.99,,,-99.99,,2013-03-04 18:32:00,
2013-03-04 13:42:00,37.0,27.0,29.56,WNW,298,14.0,20.0,66,-99.99,,,-99.99,,2013-03-04 18:42:00,
2013-03-04 13:52:00,36.0,26.0,29.56,West,281,8.0,17.0,66,-99.99,,,-99.99,,2013-03-04 18:52:00,
2013-03-04 14:02:00,37.0,27.0,29.56,WNW,292,11.0,17.0,66,-99.99,,,-99.99,,2013-03-04 19:02:00,
2013-03-04 14:11:00,37.0,27.0,29.56,WNW,292,11.0,17.0,66,-99.99,,,-99.99,,2013-03-04 19:11:00,
2013-03-04 14:22:00,36.0,26.0,29.56,NW,304,7.0,19.0,68,-99.99,,,-99.99,,2013-03-04 19:22:00,
2013-03-04 14:32:00,36.0,27.0,29.56,WNW,290,8.0,17.0,69,-99.99,,,-99.99,,2013-03-04 19:32:00,
2013-03-04 14:42:00,36.0,27.0,29.56,WNW,290,8.0,17.0,69,-99.99,,,-99.99,,2013-03-04 19:42:00,
2013-03-04 14:52:00,37.0,27.0,29.56,WNW,302,8.0,17.0,66,-99.99,,,-99.99,,2013-03-04 19:52:00,
2013-03-04 15:02:00,37.0,26.0,29.56,WNW,299,11.0,17.0,65,-99.99,,,-99.99,,2013-03-04 20:02:00,
2013-03-04 15:11:00,37.0,26.0,29.57,WNW,294,10.0,17.0,64,-99.99,,,-99.99,,2013-03-04 20:11:00,
2013-03-04 15:22:00,37.0,26.0,29.57,WNW,294,10.0,17.0,64,-99.99,,,-99.99,,2013-03-04 20:22:00,
2013-03-04 15:32:00,37.0,26.0,29.57,West,279,10.0,16.0,65,-99.99,,,-99.99,,2013-03-04 20:32:00,
2013-03-04 15:42:00,37.0,26.0,29.57,West,279,10.0,16.0,65,-99.99,,,-99.99,,2013-03-04 20:42:00,
2013-03-04 15:53:00,37.0,27.0,29.57,NW,306,4.0,17.0,66,-99.99,,,-99.99,,2013-03-04 20:53:00,
2013-03-04 16:02:00,37.0,27.0,29.57,WNW,294,8.0,16.0,67,-99.99,,,-99.99,,2013-03-04 21:02:00,
2013-03-04 16:12:00,37.0,27.0,29.57,WNW,294,8.0,16.0,67,-99.99,,,-99.99,,2013-03-04 21:12:00,
2013-03-04 16:22:00,37.0,27.0,29.57,WNW,282,6.0,21.0,68,-99.99,,,-99.99,,2013-03-04 21:22:00,
2013-03-04 16:32:00,36.0,27.0,29.58,NW,314,7.0,15.0,69,-99.99,,,-99.99,,2013-03-04 21:32:00,
2013-03-04 16:42:00,36.0,27.0,29.58,NW,314,7.0,15.0,69,-99.99,,,-99.99,,2013-03-04 21:42:00,
2013-03-04 16:53:00,36.0,28.0,29.59,WNW,288,6.0,14.0,71,-99.99,,,-99.99,,2013-03-04 21:53:00,
2013-03-04 17:02:00,35.0,27.0,29.59,West,272,7.0,17.0,71,-99.99,,,-99.99,,2013-03-04 22:02:00,
2013-03-04 17:12:00,35.0,27.0,29.59,West,272,7.0,17.0,71,-99.99,,,-99.99,,2013-03-04 22:12:00,
2013-03-04 17:22:00,35.0,27.0,29.60,WNW,291,7.0,17.0,72,-99.99,,,-99.99,,2013-03-04 22:22:00,
2013-03-04 17:32:00,35.0,27.0,29.61,NNW,338,3.0,15.0,71,-99.99,,,-99.99,,2013-03-04 22:32:00,
2013-03-04 17:42:00,35.0,27.0,29.61,NNW,338,3.0,15.0,71,-99.99,,,-99.99,,2013-03-04 22:42:00,
2013-03-04 17:52:00,34.0,26.0,29.62,WNW,300,7.0,18.0,71,-99.99,,,-99.99,,2013-03-04 22:52:00,
2013-03-04 18:02:00,34.0,26.0,29.62,WNW,293,5.0,13.0,72,-99.99,,,-99.99,,2013-03-04 23:02:00,
2013-03-04 18:11:00,34.0,26.0,29.62,WNW,293,5.0,13.0,72,-99.99,,,-99.99,,2013-03-04 23:11:00,
2013-03-04 18:22:00,33.0,26.0,29.64,WNW,298,6.0,13.0,75,-99.99,,,-99.99,,2013-03-04 23:22:00,
2013-03-04 18:32:00,33.0,26.0,29.64,WNW,283,4.0,10.0,76,-99.99,,,-99.99,,2013-03-04 23:32:00,
2013-03-04 18:42:00,33.0,26.0,29.64,WNW,283,4.0,10.0,76,-99.99,,,-99.99,,2013-03-04 23:42:00,
2013-03-04 18:52:00,33.0,26.0,29.64,WNW,288,6.0,18.0,75,-99.99,,,-99.99,,2013-03-04 23:52:00,
2013-03-04 19:02:00,32.0,25.0,29.64,West,281,7.0,18.0,75,-99.99,,,-99.99,,2013-03-05 00:02:00,
2013-03-04 19:12:00,32.0,25.0,29.64,West,281,7.0,18.0,75,-99.99,,,-99.99,,2013-03-05 00:12:00,
2013-03-04 19:22:00,32.0,25.0,29.65,WNW,284,3.0,13.0,74,-99.99,,,-99.99,,2013-03-05 00:22:00,
2013-03-04 19:32:00,32.0,25.0,29.65,WNW,296,4.0,12.0,74,-99.99,,,-99.99,,2013-03-05 00:32:00,
2013-03-04 19:42:00,32.0,25.0,29.65,WNW,296,4.0,12.0,74,-99.99,,,-99.99,,2013-03-05 00:42:00,
2013-03-04 19:52:00,32.0,24.0,29.66,NW,314,4.0,14.0,72,-99.99,,,-99.99,,2013-03-05 00:52:00,
2013-03-04 20:01:00,32.0,24.0,29.66,NW,314,4.0,14.0,72,-99.99,,,-99.99,,2013-03-05 01:01:00,
2013-03-04 20:12:00,32.0,24.0,29.66,NW,314,4.0,14.0,72,-99.99,,,-99.99,,2013-03-05 01:12:00,
2013-03-04 20:22:00,32.0,24.0,29.67,WNW,295,3.0,15.0,71,-99.99,,,-99.99,,2013-03-05 01:22:00,
2013-03-04 20:32:00,32.0,23.0,29.67,WNW,287,6.0,14.0,70,-99.99,,,-99.99,,2013-03-05 01:32:00,
2013-03-04 20:42:00,32.0,23.0,29.67,WNW,287,6.0,14.0,70,-99.99,,,-99.99,,2013-03-05 01:42:00,
2013-03-04 20:52:00,32.0,23.0,29.68,NW,314,4.0,13.0,70,-99.99,,,-99.99,,2013-03-05 01:52:00,
2013-03-04 21:01:00,32.0,23.0,29.68,West,269,5.0,12.0,70,-99.99,,,-99.99,,2013-03-05 02:01:00,
2013-03-04 21:11:00,32.0,23.0,29.68,West,269,5.0,12.0,70,-99.99,,,-99.99,,2013-03-05 02:11:00,
2013-03-04 21:22:00,32.0,23.0,29.69,WNW,289,3.0,11.0,70,-99.99,,,-99.99,,2013-03-05 02:22:00,
2013-03-04 21:32:00,32.0,23.0,29.69,NW,313,4.0,12.0,70,-99.99,,,-99.99,,2013-03-05 02:32:00,
2013-03-04 21:42:00,32.0,23.0,29.69,NW,313,4.0,12.0,70,-99.99,,,-99.99,,2013-03-05 02:42:00,
2013-03-04 21:53:00,32.0,23.0,29.70,NW,325,4.0,16.0,70,-99.99,,,-99.99,,2013-03-05 02:53:00,
2013-03-04 22:02:00,32.0,24.0,29.70,North,350,4.0,11.0,71,-99.99,,,-99.99,,2013-03-05 03:02:00,
2013-03-04 22:12:00,32.0,24.0,29.70,WNW,301,5.0,13.0,71,-99.99,,,-99.99,,2013-03-05 03:12:00,
2013-03-04 22:22:00,32.0,24.0,29.70,WNW,301,5.0,13.0,71,-99.99,,,-99.99,,2013-03-05 03:22:00,
2013-03-04 22:32:00,31.0,23.0,29.70,WNW,295,8.0,11.0,71,-99.99,,,-99.99,,2013-03-05 03:32:00,
2013-03-04 22:42:00,31.0,23.0,29.70,WNW,295,8.0,11.0,71,-99.99,,,-99.99,,2013-03-05 03:42:00,
2013-03-04 22:52:00,32.0,24.0,29.71,NW,307,6.0,12.0,71,-99.99,,,-99.99,,2013-03-05 03:52:00,
2013-03-04 23:02:00,32.0,24.0,29.71,WNW,295,5.0,10.0,71,-99.99,,,-99.99,,2013-03-05 04:02:00,
2013-03-04 23:12:00,32.0,24.0,29.71,WNW,295,5.0,10.0,71,-99.99,,,-99.99,,2013-03-05 04:12:00,
2013-03-04 23:22:00,32.0,24.0,29.71,WNW,300,5.0,10.0,71,-99.99,,,-99.99,,2013-03-05 04:22:00,
2013-03-04 23:32:00,32.0,24.0,29.71,WNW,300,5.0,12.0,71,-99.99,,,-99.99,,2013-03-05 04:32:00,
2013-03-04 23:42:00,32.0,24.0,29.71,WNW,300,5.0,12.0,71,-99.99,,,-99.99,,2013-03-05 04:42:00,
2013-03-04 23:52:00,32.0,24.0,29.72,WNW,303,7.0,13.0,71,-99.99,,,-99.99,,2013-03-05 04:52:00,